This demonstration page uses our WeatherBlox Daily Observations layout. Learn more.

Left ArrowRight Arrow

Hourly Observations for September 25, 2017

Temp ( °F °C ) Dew Point ( °F °C ) Humidity (%) Winds ( mph kmh ) Pressure ( in mb ) Visibility ( mi km ) Precip ( " mm )
12:12 am 00:12 Clear 63 17 57 14 83 83 Calm 30.06 1018 10 16.0934 N/A
12:32 am 00:32 Clear 61 16 57 14 88 88 Calm 30.06 1018 10 16.0934 N/A
12:52 am 00:52 Clear 59 15 57 14 94 94 Calm 30.06 1018 10 16.0934 N/A
1:12 am 01:12 Clear 61 16 57 14 88 88 Calm 30.06 1018 10 16.0934 N/A
1:32 am 01:32 Clear 59 15 57 14 94 94 Calm 30.06 1018 10 16.0934 N/A
1:52 am 01:52 Clear 59 15 55 13 88 88 Calm 30.06 1018 10 16.0934 N/A
2:12 am 02:12 Clear 59 15 55 13 88 88 Calm 30.06 1018 10 16.0934 N/A
2:32 am 02:32 Clear 57 14 55 13 94 94 E 3 6 30.06 1018 10 16.0934 N/A
2:52 am 02:52 Clear 59 15 57 14 94 94 ESE 5 7 30.06 1018 10 16.0934 N/A
3:11 am 03:11 Clear 57 14 55 13 94 94 Calm 30.06 1018 10 16.0934 N/A
3:32 am 03:32 Clear 57 14 55 13 94 94 Calm 30.06 1018 10 16.0934 N/A
3:52 am 03:52 Clear 57 14 55 13 94 94 Calm 30.03 1017 10 16.0934 N/A
4:11 am 04:11 Clear 57 14 55 13 94 94 Calm 30.03 1017 10 16.0934 N/A
4:32 am 04:32 Clear 57 14 54 12 88 88 Calm 30.03 1017 10 16.0934 N/A
4:52 am 04:52 Clear 57 14 54 12 88 88 Calm 30.03 1017 10 16.0934 N/A
5:11 am 05:11 Clear 57 14 55 13 94 94 Calm 30.03 1017 10 16.0934 N/A
5:32 am 05:32 Clear 57 14 54 12 88 88 Calm 30.03 1017 10 16.0934 N/A
5:52 am 05:52 Clear 55 13 54 12 94 94 Calm 30.06 1018 10 16.0934 N/A
6:11 am 06:11 Clear 55 13 54 12 94 94 Calm 30.03 1017 10 16.0934 N/A
6:32 am 06:32 Clear 57 14 55 13 94 94 Calm 30.06 1018 10 16.0934 N/A
6:52 am 06:52 Clear 55 13 54 12 94 94 Calm 30.06 1018 10 16.0934 N/A
7:11 am 07:11 Clear 55 13 54 12 94 94 Calm 30.06 1018 10 16.0934 N/A
7:32 am 07:32 Clear 55 13 54 12 94 94 Calm 30.06 1018 10 16.0934 N/A
7:52 am 07:52 Sunny 55 13 54 12 94 94 Calm 30.06 1018 10 16.0934 N/A
8:12 am 08:12 Sunny 55 13 54 12 94 94 Calm 30.06 1018 10 16.0934 N/A
8:32 am 08:32 Sunny 57 14 55 13 94 94 Calm 30.06 1018 10 16.0934 N/A
8:52 am 08:52 Sunny 61 16 59 15 94 94 Calm 30.06 1018 10 16.0934 N/A
9:12 am 09:12 Sunny 64 18 59 15 83 83 Calm 30.06 1018 10 16.0934 N/A
9:32 am 09:32 Sunny 70 21 61 16 73 73 Calm 30.06 1018 10 16.0934 N/A
9:52 am 09:52 Sunny 72 22 61 16 69 69 Calm 30.03 1017 10 16.0934 N/A
10:12 am 10:12 Sunny 73 23 61 16 65 65 Calm 30.03 1017 10 16.0934 N/A
10:32 am 10:32 Sunny 77 25 61 16 57 57 SE 3 6 30.03 1017 10 16.0934 N/A
10:52 am 10:52 Sunny 77 25 61 16 57 57 SSE 3 6 30.03 1017 10 16.0934 N/A
11:12 am 11:12 Sunny 79 26 61 16 54 54 SSW 3 6 30.03 1017 10 16.0934 N/A
11:32 am 11:32 Sunny 81 27 61 16 51 51 Calm 30.03 1017 10 16.0934 N/A
11:52 am 11:52 Sunny 82 28 61 16 48 48 Calm 30.03 1017 10 16.0934 N/A
12:12 pm 12:12 Sunny 82 28 61 16 48 48 SSW 3 6 30.03 1017 10 16.0934 N/A
12:32 pm 12:32 Sunny 84 29 59 15 43 43 Calm 30.03 1017 10 16.0934 N/A
12:52 pm 12:52 Sunny 84 29 61 16 45 45 Calm 30.03 1017 10 16.0934 N/A
1:12 pm 13:12 Sunny 86 30 59 15 40 40 Calm 30.03 1017 10 16.0934 N/A
1:32 pm 13:32 Sunny 86 30 59 15 40 40 Calm 30 1016 10 16.0934 N/A
1:52 pm 13:52 Sunny 86 30 57 14 38 38 SW 3 6 30 1016 10 16.0934 N/A
2:12 pm 14:12 Sunny 88 31 57 14 35 35 WNW 3 6 29.97 1015 10 16.0934 N/A
2:32 pm 14:32 Sunny 88 31 57 14 35 35 NNW 3 6 29.97 1015 10 16.0934 N/A
2:52 pm 14:52 Sunny 88 31 57 14 35 35 NNE 3 6 29.97 1015 10 16.0934 N/A
3:12 pm 15:12 Sunny 88 31 59 15 38 38 WSW 5 7 29.94 1014 10 16.0934 N/A
3:32 pm 15:32 Sunny 88 31 57 14 35 35 Calm 29.94 1014 10 16.0934 N/A
3:52 pm 15:52 Sunny 90 32 57 14 33 33 Calm 29.94 1014 10 16.0934 N/A
4:12 pm 16:12 Sunny 90 32 55 13 31 31 Calm 29.94 1014 10 16.0934 N/A
4:31 pm 16:31 Sunny 90 32 55 13 31 31 Calm 29.94 1014 10 16.0934 N/A
4:52 pm 16:52 Sunny 90 32 57 14 33 33 Calm 29.94 1014 10 16.0934 N/A
5:12 pm 17:12 Sunny 90 32 57 14 33 33 SSW 3 6 29.91 1013 10 16.0934 N/A
5:32 pm 17:32 Sunny 88 31 57 14 35 35 Calm 29.91 1013 10 16.0934 N/A
5:52 pm 17:52 Sunny 88 31 57 14 35 35 W 3 6 29.91 1013 10 16.0934 N/A
6:11 pm 18:11 Sunny 88 31 57 14 35 35 Calm 29.91 1013 10 16.0934 N/A
6:32 pm 18:32 Sunny 88 31 55 13 33 33 WSW 3 6 29.91 1013 10 16.0934 N/A
6:52 pm 18:52 Sunny 86 30 57 14 38 38 Calm 29.94 1014 10 16.0934 N/A
7:12 pm 19:12 Sunny 84 29 59 15 43 43 W 3 6 29.94 1014 10 16.0934 N/A
7:32 pm 19:32 Sunny 82 28 59 15 45 45 Calm 29.94 1014 10 16.0934 N/A
7:52 pm 19:52 Clear 77 25 61 16 57 57 Calm 29.94 1014 10 16.0934 N/A
8:11 pm 20:11 Clear 73 23 63 17 69 69 Calm 29.94 1014 10 16.0934 N/A
8:32 pm 20:32 Clear 70 21 63 17 78 78 Calm 29.94 1014 10 16.0934 N/A
8:51 pm 20:51 Clear 70 21 61 16 73 73 ESE 3 6 29.94 1014 10 16.0934 N/A
9:12 pm 21:12 Clear 68 20 61 16 78 78 Calm 29.97 1015 10 16.0934 N/A
9:32 pm 21:32 Clear 68 20 61 16 78 78 Calm 30 1016 10 16.0934 N/A
9:51 pm 21:51 Clear 66 19 61 16 83 83 SSE 3 6 30 1016 10 16.0934 N/A
10:12 pm 22:12 Clear 68 20 61 16 78 78 WSW 3 6 30 1016 10 16.0934 N/A
10:32 pm 22:32 Clear 64 18 61 16 88 88 S 3 6 30 1016 10 16.0934 N/A
10:52 pm 22:52 Clear 68 20 61 16 78 78 SSE 6 9 30 1016 10 16.0934 N/A
11:12 pm 23:12 Clear 68 20 61 16 78 78 Calm 30 1016 10 16.0934 N/A
11:32 pm 23:32 Clear 66 19 61 16 83 83 Calm 30 1016 10 16.0934 N/A
11:51 pm 23:51 Clear 64 18 61 16 88 88 SE 5 7 30 1016 10 16.0934 N/A

Powered by AerisWeather